Location: Breezy Point Observatory
(38.9725°N, 81.7133°W)
Time: 17:18:52
(UTC-05:00)

Hubble Space Telescope - Visible Passes

Search period start: 23 February 2018 00:00
Search period end: 05 March 2018 00:00
Orbit: 537 x 541 km, 28.5° (Epoch: 23 February)

Date Brightness Start Highest point End Pass type
(mag) Time Alt. Az. Time Alt. Az. Time Alt. Az.
23 Feb 2.8 05:12:57 18° S 05:12:58 18° S 05:15:46 10° SE visible
24 Feb 2.9 05:03:15 18° SSE 05:03:15 18° SSE 05:05:29 10° SE visible
25 Feb 3.0 04:53:33 16° SSE 04:53:33 16° SSE 04:55:09 10° SE visible
25 Feb 3.0 06:30:24 10° SW 06:32:45 15° SSW 06:35:07 10° SSE visible
26 Feb 3.3 04:43:51 14° SSE 04:43:51 14° SSE 04:44:46 10° SE visible
26 Feb 3.1 06:20:23 10° SW 06:22:22 13° SSW 06:24:21 10° SSE visible
27 Feb 3.6 04:34:10 11° SE 04:34:10 11° SE 04:34:21 10° SE visible
27 Feb 3.1 06:10:34 10° SW 06:11:58 11° SSW 06:13:20 10° S visible
